Aérodrome :
LOGIN :

S'inscrire | Disclaimer

   EN    FR    IT 

 










Légende :    VFR   VFR Marginal   IFR   IFR Intensif   IFR Très Intensif
Visi : 
Plafond : 
>= 8 km
>= 3000ft
5 à 8 km
1000 à 3000 ft
1500m à 5 km
500 à 1000 ft
800 à 1500m
200 à 500 ft
< 800m
< 200 ft
Symboles :   Orages  Brouillard  Fortes neiges  Fortes précipitations  Vent > 20 kt
SIGMETs :   Divers  Orages  Givrage  Turbulence  Onde Orograph.  Cendres Volcan.







- Altitude de l'aérodrome : 768 ft
- Code IATA : MXP


LIMC - Milano Malpensa

DERNIER METAR :
  • 140750Z 01002KT 9999 SCT045 03/M02 Q1009 NOSIG

METARs EXPIRÉS :
  • 140720Z 35004KT 9999 BKN045 03/M01 Q1009 NOSIG
  • 140650Z 04003KT 320V100 9999 BKN045 03/M01 Q1009 NOSIG
  • 140620Z 36005KT 9999 BKN045 03/M01 Q1009 NOSIG
  • 140550Z 03003KT 360V060 9999 BKN045 02/M01 Q1008 NOSIG
  • 140520Z 01004KT 9999 BKN040 02/M01 Q1009 NOSIG

TAF TAF LIMC
Valide du 14 à 06h jusqu'au 15 à 12h UTC


140500Z 1406/1512 VRB05KT 9999 SCT050
TEMPO 1406/1408 2500 BCFG
Pas de NOTAMs connus pour ce terrain.



MET'MAP, la Météo Aéronautique d'un coup d'oeil ! - Copyright ORBIFLY Décembre 2007 - Disclaimer

ORBIFLY MET'MAP TEAM :

Programmation & Développement : Alexandra Zaïnal
Conception & Développement : Baudouin d'Aumeries
Co-Programmation & Développement : Marc-Olivier Méhu
Soutien technique & logistique : Manuel Goepfert

Contact : metmap@orbifly.com




SOURCES & CREDITS :

   NOAA